Regional Weather Roundup
Issued by NWS

Home | Current Version | Previous Version | Graphics & Text | Print | Product List | Glossary On
Versions: 1 2 3 4 5 6 7 8 9 10 11 12 13 14 15 16 17 18 19 20 21 22 23 24 25 26 27 28 29 30 31 32 33 34 35 36 37 38 39 40 41 42 43 44 45 46 47 48 49 50
322
ASUS44 KLIX 281711
RWRLA
LOUISIANA WEATHER ROUNDUP
NATIONAL WEATHER SERVICE NEW ORLEANS LA
1200 PM CDT SAT MAR 28 2015

NOTE: "FAIR" INDICATES FEW OR NO CLOUDS BELOW 12,000 FEET WITH NO
      SIGNIFICANT WEATHER AND/OR OBSTRUCTIONS TO VISIBILITY.
      SKY/WX - SKY CONDITION AND SIGNIFICANT WEATHER.
      TMP - AIR TEMPERATURE.    DP   - DEWPOINT TEMPERATURE.
      RH  - RELATIVE HUMIDITY.  PRES - PRESSURE.
      HX  - HEAT INDEX.         WCI  - WIND CHILL INDEX.

*  THESE STATIONS ARE NOT NWS OR FAA STATIONS AND ARE NOT UNDER
   NWS QUALITY CONTROL.

LAZ040-048-061>063-065-066-069-281800-
SOUTHEAST LOUISIANA

CITY           SKY/WX    TMP DP  RH WIND       PRES   REMARKS
N.O. AUDUBON   NOT AVBL
N.O. INTL ARPT MOSUNNY   63  41  44 S7        30.26S
N.O. LAKEFRONT SUNNY     63  38  39 E8        30.27S
SLIDELL        SUNNY     60  37  42 SE6       30.25F
BATON ROUGE    SUNNY     63  39  41 S5        30.24F
BOOTHVILLE     SUNNY     61  44  53 NE7       30.27S
BELLE CHASSE   MOSUNNY   61  40  45 VRB5      30.26F
BOGALUSA*        N/A     61  35  38 CALM      30.27F
GALLIANO*      SUNNY     66  45  47 MISG      30.25S
NEW ROADS*     FAIR      62  39  42 SE6       30.23F
GONZALES*      FAIR      64  43  46 SE6       30.24S
HAMMOND*       SUNNY     63  34  34 S6        30.27S
HOUMA*         NOT AVBL
PORT FOURCHON* SUNNY     63  48  59 E13       30.27F

$$

LAZ041-044-053-054-281800-
SOUTHWEST LOUISIANA

CITY           SKY/WX    TMP DP  RH WIND       PRES   REMARKS
LAKE CHARLES   SUNNY     68  51  54 MISG      30.21F
LAFAYETTE      SUNNY     66  45  46 S6        30.22F
PATTERSON      SUNNY     64  45  48 E7        30.24F
SALT POINT       N/A     64  47  53 SE8       30.22S
NEW IBERIA     SUNNY     67  45  45 VRB5      30.22F
CHENAULT AIRPK SUNNY     66  52  59 SE12      30.21F

$$

LAZ027-028-281800-
CENTRAL LOUISIANA

CITY           SKY/WX    TMP DP  RH WIND       PRES   REMARKS
FORT POLK      SUNNY     65  45  47 S8        30.18F
ALEXANDRIA INT SUNNY     62  44  51 SE8       30.20F
ALEXANDRIA     SUNNY     63  40  42 SE8       30.22S

$$

LAZ001-002-281800-
NORTHWEST LOUISIANA

CITY           SKY/WX    TMP DP  RH WIND       PRES   REMARKS
SHREVEPORT     PTSUNNY   65  43  44 SE10      30.17S
BARKSDALE AFB  MOSUNNY   63  43  48 S10       30.18S
DTN SHREVEPORT MOSUNNY   61  43  51 S12       30.18S

$$

LAZ014-016-281800-
NORTHEAST LOUISIANA

CITY           SKY/WX    TMP DP  RH WIND       PRES   REMARKS
MONROE         PTSUNNY   54  38  54 VRB6      30.24F
TALLULAH       PTSUNNY   53  37  54 E9        30.27S

$$




USA.gov is the U.S. government's official web portal to all federal, state and local government web resources and services.